Tracking 29967 objects as of 5-Dec-2024
HD Live streaming from Space Station
objects crossing your sky now

STARLINK-31057

Track STARLINK-31057 now!
10-day predictions
STARLINK-31057 is classified as:


NORAD ID: 58545
Int'l Code: 2023-192Q
Perigee: 481.7 km
Apogee: 483.1 km
Inclination: 53.2 °
Period: 94.1 minutes
Semi major axis: 6853 km
RCS: Unknown
Launch date: December 8, 2023
Source: United States (US)
Launch site: AIR FORCE WESTERN TEST RANGE (AFWTR)
Your satellite tracking list
Your tracking list is empty




NASA's NSSDC Master Catalog

Two Line Element Set (TLE):
1 58545U 23192Q   24340.46937338  .00000188  00000-0  18483-4 0  9995
2 58545  53.1599  35.9851 0000998 117.0426 243.0677 15.30192261 55671
Source of the keplerian elements: AFSPC